Zurück zum Katalog

STARLINK-2467

AktivKommunikationVLEO
NORAD 48126·PAYLOAD·🇺🇸 United States

Gestartet Apr 7, 2021 von Cape Canaveral Space Force Station

Loading…

Nächste Überflüge (nächste 24 Stunden)

TLE

AktuellSource: CelesTrak SupGP

Epoche: Sep 14, 2026, 20:14 UTC

1 48126C 21027AL  26257.84354167 -.00008885  00000+0 -28568-3 0  2572
2 48126  53.1585 352.1896 0001201  82.5595 345.4424 15.31711886    10

Verfolge STARLINK-2467 in Echtzeit mit AllMySat

Download on the App Store